1494331200.04,43498,14.63,72652.3,-2.87,-3.67,-3.51,0,*5A
1494331201.29,43499,14.63,72652.5,-2.87,-3.63,-3.51,0,*5F
1494331202.56,43500,14.63,72652.0,-2.89,-3.67,-3.51,0,*54
1494331203.8,43501,14.63,72654.3,-2.87,-3.63,-3.51,0,*5F
1494331205.04,43502,14.63,72654.0,-2.87,-3.67,-3.55,0,*5C
1494331206.28,43503,14.63,72652.3,-2.87,-3.67,-3.55,0,*5D
1494331207.52,43504,14.63,72648.5,-2.87,-3.67,-3.55,0,*5A
1494331208.76,43505,14.63,72654.5,-2.87,-3.67,-3.55,0,*5B
1494331210.0,43506,14.63,72652.0,-2.87,-3.67,-3.63,0,*5D
1494331211.24,43507,14.63,72652.5,-2.87,-3.71,-3.63,0,*5B
1494331212.48,43508,14.63,72652.5,-2.87,-3.71,-3.67,0,*50
1494331213.71,43509,14.63,72650.3,-2.87,-3.79,-3.63,0,*5D
1494331214.93,43510,14.63,72650.8,-2.87,-3.79,-3.63,0,*55
1494331216.18,43511,14.63,72652.5,-2.89,-3.79,-3.67,0,*5E
1494331217.43,43512,14.63,72652.5,-2.89,-3.79,-3.67,0,*5D
1494331218.67,43513,14.63,72654.5,-2.89,-3.83,-3.67,0,*59
1494331219.9,43514,14.63,72650.5,-2.87,-3.91,-3.67,0,*53
1494331221.12,43515,14.63,72654.5,-2.87,-3.83,-3.67,0,*51
1494331222.37,43516,14.63,72654.0,-2.89,-3.83,-3.67,0,*5C
1494331223.62,43517,14.63,72654.8,-2.89,-3.83,-3.71,0,*5A
1494331224.86,43518,14.63,72652.5,-2.89,-3.91,-3.67,0,*51
1494331226.09,43519,14.63,72654.0,-2.87,-3.83,-3.67,0,*5D
1494331227.31,43520,14.63,72652.0,-2.87,-3.83,-3.67,0,*57
1494331228.54,43521,14.63,72654.3,-2.87,-3.83,-3.67,0,*56
1494331229.78,43522,14.63,72650.8,-2.89,-3.83,-3.67,0,*5B
1494331231.01,43523,14.63,72652.3,-2.87,-3.83,-3.67,0,*54
1494331232.23,43524,14.63,72650.8,-2.87,-3.83,-3.67,0,*53
1494331233.48,43525,14.63,72654.3,-2.89,-3.79,-3.67,0,*59
1494331234.73,43526,14.63,72652.3,-2.89,-3.91,-3.67,0,*5C
1494331235.95,43527,14.63,72652.0,-2.87,-3.83,-3.67,0,*50
1494331237.2,43528,14.63,72650.8,-2.89,-3.79,-3.67,0,*54
1494331238.42,43529,14.63,72650.5,-2.87,-3.83,-3.67,0,*5E
1494331239.65,43530,14.63,72652.5,-2.87,-3.83,-3.67,0,*56
1494331240.87,43531,14.63,72652.8,-2.87,-3.83,-3.67,0,*57
1494331242.12,43532,14.63,72654.3,-2.89,-3.83,-3.71,0,*5D
1494331243.34,43533,14.63,72654.0,-2.87,-3.83,-3.71,0,*52
1494331244.59,43534,14.63,72652.3,-2.89,-3.91,-3.71,0,*58
1494331245.83,43535,14.63,72652.3,-2.89,-3.83,-3.67,0,*5D
1494331247.08,43536,14.63,72654.0,-2.89,-3.91,-3.67,0,*5D
1494331248.33,43537,14.63,72648.8,-2.89,-3.91,-3.67,0,*5C
1494331249.58,43538,14.63,72654.5,-2.89,-3.91,-3.67,0,*53
1494331250.83,43539,14.63,72650.8,-2.89,-3.91,-3.71,0,*55
1494331252.06,43540,14.63,72650.8,-2.89,-3.91,-3.79,0,*53
1494331253.31,43541,14.63,72650.3,-2.89,-3.91,-3.71,0,*5A
1494331254.55,43542,14.63,72650.8,-2.89,-3.83,-3.71,0,*5A
1494331255.8,43543,14.63,72654.3,-2.89,-3.91,-3.71,0,*58
1494331257.05,43544,14.63,72654.0,-2.89,-3.91,-3.71,0,*5F
1494331258.27,43545,14.63,72654.5,-2.87,-3.83,-3.71,0,*53
1494331259.48,43546,14.63,72652.8,-2.87,-3.91,-3.79,0,*5B
1494331260.7,43547,14.63,72648.3,-2.87,-3.95,-3.71,0,*56
1494331261.95,43548,14.63,72652.0,-2.89,-3.91,-3.71,0,*53
1494331263.19,43549,14.63,72652.3,-2.89,-3.91,-3.71,0,*52
1494331264.44,43550,14.63,72648.5,-2.89,-3.91,-3.71,0,*5A
1494331265.67,43551,14.63,72652.0,-2.87,-3.83,-3.71,0,*56
1494331266.91,43552,14.63,72652.5,-2.89,-3.95,-3.71,0,*5C
1494331268.13,43553,14.63,72648.5,-2.87,-3.91,-3.71,0,*57
1494331269.38,43554,14.63,72652.5,-2.89,-3.83,-3.71,0,*5D
1494331270.61,43555,14.63,72654.3,-2.87,-3.91,-3.71,0,*51
1494331271.85,43556,14.63,72650.5,-2.89,-3.83,-3.71,0,*5F
1494331273.1,43557,14.63,72654.3,-2.89,-3.91,-3.71,0,*5D
1494331274.35,43558,14.63,72654.8,-2.89,-3.91,-3.71,0,*52
1494331275.59,43559,14.63,72652.3,-2.89,-3.83,-3.71,0,*50
1494331276.82,43560,14.63,72652.3,-2.87,-3.91,-3.71,0,*57
1494331278.07,43561,14.63,72654.0,-2.89,-3.91,-3.71,0,*58
1494331279.31,43562,14.63,72650.5,-2.89,-3.91,-3.71,0,*5B
1494331280.56,43563,14.63,72652.5,-2.89,-3.83,-3.71,0,*59
1494331281.78,43564,14.63,72654.5,-2.87,-3.83,-3.71,0,*50
1494331283.01,43565,14.63,72648.8,-2.87,-3.91,-3.67,0,*55
1494331284.23,43566,14.63,72650.0,-2.87,-3.83,-3.67,0,*55
1494331285.46,43567,14.63,72652.0,-2.87,-3.83,-3.67,0,*54
1494331286.68,43568,14.63,72654.3,-2.87,-3.83,-3.67,0,*5B
1494331287.93,43569,14.63,72650.8,-2.89,-3.83,-3.67,0,*54
1494331289.15,43570,14.63,72654.3,-2.87,-3.91,-3.67,0,*51
1494331290.38,43571,14.63,72652.5,-2.87,-3.91,-3.67,0,*50
1494331291.62,43572,14.63,72654.5,-2.89,-3.83,-3.67,0,*5E
1494331292.85,43573,14.63,72652.0,-2.87,-3.83,-3.67,0,*51
1494331294.1,43574,14.63,72652.3,-2.89,-3.79,-3.67,0,*5D
1494331295.32,43575,14.63,72648.0,-2.87,-3.83,-3.67,0,*57
1494331296.54,43576,14.63,72650.8,-2.87,-3.79,-3.67,0,*51
1494331297.77,43577,14.63,72648.3,-2.87,-3.83,-3.67,0,*55
1494331299.01,43578,14.63,72652.3,-2.87,-3.71,-3.63,0,*53
1494331300.25,43579,14.63,72652.0,-2.87,-3.71,-3.63,0,*52
1494331301.49,43580,14.63,72652.0,-2.87,-3.71,-3.67,0,*50
1494331302.76,43581,14.63,72650.3,-2.85,-3.67,-3.59,0,*59
1494331304.04,43582,14.63,72650.8,-2.85,-3.67,-3.59,0,*5A
1494331305.31,43583,14.63,72654.0,-2.85,-3.67,-3.59,0,*5B
1494331306.58,43584,14.63,72650.5,-2.85,-3.67,-3.51,0,*54
1494331307.82,43585,14.63,72650.5,-2.87,-3.71,-3.55,0,*54
1494331309.06,43586,14.63,72652.8,-2.87,-3.71,-3.51,0,*53
1494331310.3,43587,14.63,72652.5,-2.87,-3.71,-3.55,0,*56
1494331311.57,43588,14.63,72648.8,-2.85,-3.59,-3.51,0,*55
1494331312.84,43589,14.63,72652.0,-2.85,-3.63,-3.47,0,*5A
1494331314.11,43590,14.63,72652.5,-2.85,-3.59,-3.47,0,*5B
1494331315.36,43591,14.63,72648.8,-2.85,-3.63,-3.39,0,*5A
1494331316.63,43592,14.63,72650.8,-2.85,-3.59,-3.47,0,*59
1494331317.85,43593,14.63,72654.5,-2.83,-3.63,-3.39,0,*5E
1494331319.11,43594,14.63,72654.5,-2.85,-3.59,-3.35,0,*5A
1494331320.36,43595,14.63,72650.5,-2.85,-3.59,-3.35,0,*5B
1494331321.61,43596,14.63,72652.0,-2.85,-3.59,-3.39,0,*54
1494331322.86,43597,14.63,72652.0,-2.85,-3.59,-3.35,0,*59
1494331324.08,43598,14.63,72654.3,-2.83,-3.59,-3.39,0,*5C
1494331325.3,43599,14.63,72648.8,-2.83,-3.51,-3.35,0,*59
1494331326.52,43600,14.63,72652.0,-2.83,-3.47,-3.35,0,*5D
1494331327.75,43601,14.63,72650.3,-2.83,-3.47,-3.35,0,*5C
1494331328.97,43602,14.63,72654.5,-2.83,-3.47,-3.35,0,*5F
1494331330.2,43603,14.63,72652.0,-2.81,-3.47,-3.23,0,*5B
1494331331.44,43604,14.63,72654.3,-2.81,-3.47,-3.23,0,*5C
1494331332.68,43605,14.63,72652.3,-2.81,-3.43,-3.23,0,*59
1494331333.91,43606,14.63,72652.3,-2.81,-3.47,-3.23,0,*5E
1494331335.15,43607,14.63,72654.8,-2.81,-3.43,-3.23,0,*5B
1494331336.38,43608,14.63,72650.3,-2.81,-3.43,-3.23,0,*54
1494331337.59,43609,14.63,72652.8,-2.79,-3.39,-3.27,0,*5B
1494331338.81,43610,14.63,72650.5,-2.81,-3.31,-3.27,0,*5C
1494331340.04,43611,14.63,72654.3,-2.79,-3.43,-3.27,0,*5F
1494331341.25,43612,14.63,72654.0,-2.79,-3.43,-3.19,0,*51
1494331342.49,43613,14.63,72652.0,-2.81,-3.47,-3.31,0,*59
1494331343.7,43614,14.63,72654.5,-2.79,-3.39,-3.27,0,*57
1494331344.92,43615,14.63,72654.0,-2.79,-3.43,-3.27,0,*5B
1494331346.15,43616,14.63,72652.5,-2.79,-3.43,-3.27,0,*58
1494331347.34,43617,14.63,72656.3,-2.79,-3.39,-3.19,0,*59
1494331348.59,43618,14.63,72652.3,-2.81,-3.47,-3.35,0,*56
1494331349.82,43619,14.63,72652.5,-2.79,-3.51,-3.27,0,*54
1494331351.04,43620,14.63,72648.5,-2.79,-3.43,-3.27,0,*5D
1494331352.27,43621,14.63,72654.5,-2.79,-3.51,-3.27,0,*5F
1494331353.52,43622,14.63,72650.0,-2.77,-3.43,-3.27,0,*51
1494331354.77,43623,14.63,72654.3,-2.77,-3.51,-3.27,0,*53
1494331356.01,43624,14.63,72652.8,-2.77,-3.51,-3.31,0,*53
1494331357.26,43625,14.63,72654.0,-2.77,-3.51,-3.31,0,*52
1494331358.51,43626,14.63,72652.5,-2.77,-3.51,-3.39,0,*59
1494331359.75,43627,14.63,72652.0,-2.77,-3.51,-3.31,0,*50
1494331361.0,43628,14.63,72652.3,-2.77,-3.51,-3.31,0,*5F
1494331362.25,43629,14.63,72648.5,-2.75,-3.51,-3.35,0,*58
1494331363.52,43630,14.63,72650.8,-2.77,-3.51,-3.43,0,*53
1494331364.74,43631,14.63,72654.0,-2.79,-3.55,-3.39,0,*55
1494331365.96,43632,14.63,72648.3,-2.79,-3.55,-3.39,0,*56
1494331367.21,43633,14.63,72650.5,-2.75,-3.51,-3.39,0,*5F
1494331368.45,43634,14.63,72650.3,-2.77,-3.55,-3.39,0,*5E
1494331369.72,43635,14.63,72650.8,-2.77,-3.51,-3.43,0,*56
1494331370.99,43636,14.63,72652.5,-2.77,-3.55,-3.43,0,*51
1494331372.25,43637,14.63,72650.5,-2.77,-3.55,-3.43,0,*50
1494331373.52,43638,14.63,72648.8,-2.77,-3.59,-3.43,0,*53
1494331374.79,43639,14.63,72650.8,-2.77,-3.59,-3.51,0,*51
1494331376.06,43640,14.63,72650.8,-2.77,-3.59,-3.51,0,*5F
1494331377.33,43641,14.63,72652.5,-2.75,-3.55,-3.47,0,*57
1494331378.59,43642,14.63,72652.3,-2.77,-3.67,-3.51,0,*50
1494331379.87,43643,14.63,72650.5,-2.75,-3.63,-3.47,0,*50
1494331381.11,43644,14.63,72652.8,-2.79,-3.67,-3.55,0,*5C
1494331382.33,43645,14.63,72650.0,-2.79,-3.79,-3.55,0,*52
1494331383.59,43646,14.63,72650.3,-2.77,-3.59,-3.55,0,*5D
1494331384.85,43647,14.63,72650.0,-2.77,-3.79,-3.59,0,*52
1494331386.12,43648,14.63,72648.5,-2.77,-3.71,-3.59,0,*55
1494331387.36,43649,14.63,72650.8,-2.77,-3.79,-3.67,0,*51
1494331388.63,43650,14.63,72648.5,-2.77,-3.71,-3.59,0,*5C
1494331389.9,43651,14.63,72650.8,-2.77,-3.71,-3.67,0,*50
1494331391.13,43652,14.63,72644.0,-2.79,-3.79,-3.59,0,*58
1494331392.36,43653,14.63,72650.3,-2.79,-3.79,-3.59,0,*59
1494331393.61,43654,14.69,72652.8,-2.77,-3.79,-3.59,0,*50
1494331394.84,43655,14.63,72652.8,-2.79,-3.79,-3.59,0,*5F
1494331396.09,43656,14.63,72648.5,-2.81,-3.79,-3.59,0,*5B
1494331397.32,43657,14.63,72650.0,-2.79,-3.79,-3.59,0,*5D
1494331398.56,43658,14.63,72650.5,-2.81,-3.83,-3.63,0,*59
1494331399.81,43659,14.63,72652.8,-2.81,-3.75,-3.71,0,*52
1494331401.04,43660,14.63,72648.8,-2.79,-3.79,-3.59,0,*59
1494331402.27,43661,14.63,72650.0,-2.81,-3.87,-3.63,0,*57
1494331403.5,43662,14.63,72650.3,-2.79,-3.83,-3.63,0,*57
1494331404.74,43663,14.63,72650.3,-2.81,-3.83,-3.71,0,*52
1494331405.98,43664,14.63,72644.3,-2.81,-3.83,-3.71,0,*55
1494331407.22,43665,14.63,72648.0,-2.81,-3.95,-3.71,0,*53
1494331408.44,43666,14.63,72648.8,-2.81,-3.87,-3.75,0,*57
1494331409.68,43667,14.63,72644.5,-2.81,-3.87,-3.63,0,*51
1494331410.92,43668,14.69,72650.3,-2.81,-3.87,-3.63,0,*5E
1494331412.16,43669,14.63,72648.8,-2.81,-3.87,-3.63,0,*5F
1494331413.4,43670,14.63,72650.5,-2.81,-3.83,-3.63,0,*53
1494331414.65,43671,14.63,72650.0,-2.81,-3.83,-3.63,0,*52
1494331415.88,43672,14.63,72650.5,-2.81,-3.87,-3.63,0,*55
1494331417.13,43673,14.63,72650.3,-2.81,-3.83,-3.63,0,*50
1494331418.37,43674,14.63,72648.3,-2.81,-3.83,-3.63,0,*57
1494331419.62,43675,14.63,72648.0,-2.79,-3.71,-3.59,0,*55
1494331420.86,43676,14.63,72650.0,-2.81,-3.83,-3.71,0,*56
1494331422.1,43677,14.63,72650.3,-2.81,-3.83,-3.63,0,*54
1494331423.33,43678,14.63,72650.0,-2.79,-3.79,-3.67,0,*5D
1494331424.57,43679,14.63,72648.0,-2.81,-3.75,-3.63,0,*53
1494331425.81,43680,14.63,72648.5,-2.81,-3.75,-3.63,0,*55
1494331427.04,43681,14.63,72650.5,-2.79,-3.79,-3.59,0,*56
1494331428.29,43682,14.63,72646.8,-2.81,-3.83,-3.63,0,*5E
1494331429.53,43683,14.63,72646.8,-2.81,-3.75,-3.63,0,*56
1494331430.78,43684,14.63,72648.8,-2.81,-3.83,-3.63,0,*58
1494331432.02,43685,14.63,72646.8,-2.79,-3.71,-3.59,0,*5A
1494331433.27,43686,14.63,72650.5,-2.81,-3.75,-3.63,0,*53
1494331434.51,43687,14.69,72648.5,-2.81,-3.75,-3.63,0,*52
1494331435.78,43688,14.63,72646.8,-2.81,-3.71,-3.59,0,*50
1494331437.05,43689,14.63,72648.5,-2.81,-3.63,-3.59,0,*52
1494331438.31,43690,14.63,72650.5,-2.81,-3.71,-3.59,0,*59
1494331439.57,43691,14.63,72650.8,-2.81,-3.63,-3.55,0,*57
1494331440.84,43692,14.63,72650.0,-2.81,-3.63,-3.55,0,*54
1494331442.1,43693,14.63,72650.0,-2.81,-3.71,-3.47,0,*55
1494331443.36,43694,14.69,72648.8,-2.81,-3.63,-3.47,0,*51
1494331444.62,43695,14.63,72644.8,-2.81,-3.63,-3.43,0,*54
1494331445.89,43696,14.63,72650.0,-2.81,-3.59,-3.43,0,*5E
1494331447.11,43697,14.63,72650.8,-2.79,-3.55,-3.39,0,*59
1494331448.38,43698,14.63,72644.8,-2.81,-3.59,-3.43,0,*50
1494331449.6,43699,14.63,72648.8,-2.79,-3.55,-3.39,0,*57
1494331450.82,43700,14.63,72644.8,-2.79,-3.55,-3.27,0,*59
1494331452.05,43701,14.63,72650.0,-2.79,-3.51,-3.27,0,*5C
1494331453.28,43702,14.63,72648.8,-2.79,-3.43,-3.27,0,*5C
1494331454.5,43703,14.69,72648.5,-2.79,-3.51,-3.27,0,*5E
1494331455.73,43704,14.63,72646.3,-2.79,-3.43,-3.27,0,*5A
1494331456.95,43705,14.63,72650.3,-2.77,-3.39,-3.19,0,*55
1494331458.17,43706,14.69,72648.0,-2.77,-3.39,-3.19,0,*56
1494331459.39,43707,14.63,72650.0,-2.77,-3.39,-3.19,0,*57
1494331460.61,43708,14.63,72650.0,-2.77,-3.39,-3.19,0,*58
1494331461.83,43709,14.69,72650.3,-2.77,-3.31,-3.15,0,*5D
1494331463.05,43710,14.63,72650.8,-2.75,-3.23,-3.11,0,*50
1494331464.28,43711,14.63,72650.0,-2.75,-3.27,-3.11,0,*55
1494331465.5,43712,14.63,72650.5,-2.75,-3.27,-3.11,0,*56
1494331466.7,43713,14.63,72646.8,-2.73,-3.23,-3.03,0,*56
1494331467.89,43714,14.69,72650.5,-2.73,-3.23,-3.03,0,*51
1494331469.12,43715,14.63,72648.5,-2.75,-3.23,-2.99,0,*54
1494331470.32,43716,14.63,72648.0,-2.73,-3.27,-2.99,0,*55
1494331471.52,43717,14.63,72650.8,-2.73,-3.27,-3.03,0,*56
1494331472.72,43718,14.69,72650.8,-2.73,-3.23,-2.99,0,*5F
1494331473.92,43719,14.63,72648.8,-2.69,-3.23,-2.95,0,*59
1494331475.11,43720,14.63,72648.3,-2.73,-3.23,-3.03,0,*56
1494331476.31,43721,14.63,72644.3,-2.69,-3.23,-2.99,0,*5E
1494331477.52,43722,14.63,72648.5,-2.73,-3.27,-2.99,0,*52
1494331478.72,43723,14.63,72648.0,-2.69,-3.19,-2.95,0,*59
1494331479.93,43724,14.63,72644.8,-2.69,-3.11,-2.95,0,*56
1494331481.14,43725,14.63,72648.0,-2.69,-3.11,-2.95,0,*57
1494331482.34,43726,14.63,72646.0,-2.69,-3.11,-2.87,0,*57
1494331483.53,43727,14.63,72644.5,-2.65,-3.11,-2.83,0,*5E
1494331484.74,43728,14.63,72644.5,-2.69,-3.07,-2.87,0,*5E
1494331485.96,43729,14.63,72644.5,-2.67,-3.07,-2.87,0,*51
1494331487.18,43730,14.69,72644.5,-2.67,-2.99,-2.87,0,*5F
1494331488.4,43731,14.63,72644.0,-2.67,-3.11,-2.83,0,*5B
1494331489.59,43732,14.63,72648.3,-2.65,-3.03,-2.79,0,*5C
1494331490.81,43733,14.63,72648.5,-2.67,-3.11,-2.83,0,*59
1494331492.01,43734,14.69,72652.8,-2.65,-3.07,-2.83,0,*5B
1494331493.23,43735,14.69,72648.0,-2.63,-3.03,-2.83,0,*58
1494331494.45,43736,14.69,72650.8,-2.63,-3.07,-2.83,0,*5F
1494331495.65,43737,14.69,72648.8,-2.61,-3.03,-2.79,0,*5D
1494331496.84,43738,14.63,72648.5,-2.61,-3.03,-2.79,0,*52
1494331498.06,43739,14.63,72646.8,-2.63,-3.07,-2.83,0,*50
1494331499.25,43740,14.63,72648.3,-2.61,-3.07,-2.91,0,*5F
1494331500.47,43741,14.63,72646.3,-2.63,-3.03,-2.91,0,*58
1494331501.66,43742,14.63,72644.8,-2.61,-3.03,-2.91,0,*59
1494331502.88,43743,14.69,72650.0,-2.63,-3.15,-2.91,0,*5D
1494331504.08,43744,14.63,72644.3,-2.61,-3.11,-2.91,0,*5C
1494331505.27,43745,14.63,72648.3,-2.61,-3.11,-2.87,0,*5A
1494331506.47,43746,14.69,72648.5,-2.61,-3.11,-2.87,0,*59
1494331507.66,43747,14.63,72648.8,-2.61,-3.03,-2.91,0,*5C
1494331508.85,43748,14.63,72650.3,-2.61,-3.11,-2.91,0,*50
1494331510.07,43749,14.63,72650.0,-2.59,-3.11,-2.91,0,*5A
1494331511.29,43750,14.63,72648.8,-2.59,-3.11,-2.87,0,*55
1494331512.48,43751,14.69,72648.8,-2.57,-3.07,-2.87,0,*5D
1494331513.7,43752,14.63,72646.0,-2.59,-3.11,-2.91,0,*50
1494331514.92,43753,14.69,72650.5,-2.59,-3.11,-2.91,0,*51
1494331516.15,43754,14.69,72648.5,-2.59,-3.11,-2.87,0,*51
1494331517.37,43755,14.63,72646.8,-2.59,-3.11,-2.99,0,*5F
1494331518.57,43756,14.63,72646.5,-2.57,-3.07,-2.95,0,*59
1494331519.79,43757,14.63,72646.0,-2.59,-3.15,-2.99,0,*59
1494331520.99,43758,14.63,72644.5,-2.57,-3.07,-2.95,0,*57
1494331522.19,43759,14.69,72650.3,-2.57,-3.11,-2.95,0,*51
1494331523.38,43760,14.69,72650.0,-2.57,-3.11,-2.87,0,*58
1494331524.57,43761,14.69,72648.0,-2.57,-3.11,-2.87,0,*59
1494331525.79,43762,14.63,72648.0,-2.55,-3.03,-2.91,0,*5C
1494331527.01,43763,14.63,72650.0,-2.59,-3.11,-2.87,0,*55
1494331528.2,43764,14.63,72650.8,-2.57,-3.11,-2.87,0,*5C
1494331529.42,43765,14.63,72648.0,-2.55,-3.03,-2.83,0,*58
1494331530.61,43766,14.69,72650.0,-2.57,-3.07,-2.87,0,*59
1494331531.8,43767,14.63,72648.3,-2.57,-2.99,-2.83,0,*5A
1494331533.03,43768,14.69,72650.3,-2.55,-2.95,-2.83,0,*5B
1494331534.22,43769,14.69,72650.8,-2.57,-2.99,-2.87,0,*50
1494331535.44,43770,14.63,72650.3,-2.55,-3.03,-2.79,0,*59
1494331536.65,43771,14.69,72654.0,-2.55,-3.03,-2.79,0,*58
1494331537.87,43772,14.63,72648.8,-2.55,-3.07,-2.91,0,*59
1494331539.06,43773,14.63,72648.5,-2.53,-3.07,-2.91,0,*5E
1494331540.28,43774,14.63,72648.0,-2.55,-3.03,-2.83,0,*58
1494331541.5,43775,14.63,72648.8,-2.55,-3.07,-2.91,0,*5E
1494331542.72,43776,14.69,72648.8,-2.55,-3.15,-2.91,0,*5E
1494331543.93,43777,14.63,72650.3,-2.55,-3.07,-2.91,0,*5C
1494331545.12,43778,14.63,72648.8,-2.53,-3.07,-2.91,0,*55
1494331546.34,43779,14.69,72654.0,-2.55,-3.07,-2.91,0,*52
1494331547.53,43780,14.69,72652.0,-2.53,-3.07,-2.91,0,*52
1494331548.72,43781,14.69,72648.0,-2.53,-3.07,-2.91,0,*53
1494331549.94,43782,14.69,72650.8,-2.51,-3.03,-2.87,0,*51
1494331551.13,43783,14.63,72648.0,-2.53,-3.07,-2.91,0,*51
1494331552.32,43784,14.63,72646.5,-2.53,-3.07,-2.91,0,*56
1494331553.51,43785,14.63,72644.3,-2.53,-3.07,-2.91,0,*57
1494331554.7,43786,14.63,72646.0,-2.53,-3.07,-2.91,0,*54
1494331555.92,43787,14.69,72652.0,-2.51,-2.99,-2.79,0,*57
1494331557.13,43788,14.63,72648.5,-2.51,-2.99,-2.79,0,*58
1494331558.35,43789,14.69,72648.0,-2.51,-2.99,-2.79,0,*59
1494331559.57,43790,14.63,72650.3,-2.51,-3.03,-2.79,0,*53
1494331560.78,43791,14.69,72650.3,-2.51,-2.99,-2.87,0,*51
1494331562.0,43792,14.63,72650.0,-2.51,-2.99,-2.79,0,*53
1494331563.22,43793,14.63,72650.8,-2.51,-2.99,-2.79,0,*52
1494331564.44,43794,14.69,72648.5,-2.49,-2.99,-2.75,0,*50
1494331565.68,43795,14.69,72648.5,-2.51,-2.91,-2.75,0,*50
1494331566.9,43796,14.69,72648.8,-2.49,-2.87,-2.63,0,*5A
1494331568.12,43797,14.63,72646.0,-2.49,-2.87,-2.63,0,*5B
1494331569.37,43798,14.63,72646.5,-2.49,-2.75,-2.63,0,*59
1494331570.59,43799,14.69,72648.3,-2.49,-2.79,-2.55,0,*51
1494331571.84,43800,14.69,72650.0,-2.45,-2.63,-2.51,0,*5D
1494331573.09,43801,14.69,72650.5,-2.45,-2.59,-2.47,0,*52
1494331574.33,43802,14.69,72648.5,-2.45,-2.59,-2.47,0,*51
1494331575.55,43803,14.63,72650.8,-2.43,-2.59,-2.43,0,*52
1494331576.77,43804,14.63,72646.0,-2.43,-2.59,-2.43,0,*55
1494331577.98,43805,14.69,72650.8,-2.45,-2.59,-2.43,0,*52
1494331579.21,43806,14.63,72648.3,-2.43,-2.47,-2.43,0,*58
1494331580.44,43807,14.69,72648.8,-2.43,-2.51,-2.35,0,*5F
1494331581.69,43808,14.69,72650.0,-2.41,-2.47,-2.31,0,*51
1494331582.92,43809,14.69,72648.3,-2.39,-2.47,-2.27,0,*58
1494331584.11,43810,14.69,72650.0,-2.39,-2.39,-2.27,0,*59
1494331585.31,43811,14.63,72646.8,-2.39,-2.39,-2.27,0,*58
1494331586.51,43812,14.69,72646.5,-2.39,-2.39,-2.19,0,*56
1494331587.76,43813,14.69,72646.5,-2.37,-2.35,-2.11,0,*5D
1494331588.98,43814,14.63,72644.3,-2.35,-2.23,-2.11,0,*5F
1494331590.2,43815,14.69,72648.8,-2.35,-2.19,-1.95,0,*58
1494331591.47,43816,14.63,72646.3,-2.33,-2.11,-1.95,0,*55
1494331592.75,43817,14.63,72646.0,-2.33,-2.07,-1.87,0,*50
1494331594.03,43818,14.69,72648.0,-2.33,-1.99,-1.83,0,*5F
1494331595.26,43819,14.69,72648.3,-2.31,-1.91,-1.79,0,*51
1494331596.48,43820,14.63,72644.0,-2.31,-1.95,-1.79,0,*5F
1494331597.74,43821,14.69,72652.0,-2.29,-2.03,-1.79,0,*5B
1494331598.97,43822,14.69,72650.8,-2.27,-1.99,-1.75,0,*5A
1494331600.22,43823,14.69,72650.0,-2.27,-2.03,-1.91,0,*51
1494331601.44,43824,14.69,72650.3,-2.23,-2.15,-2.03,0,*5D
1494331602.67,43825,14.69,72646.8,-2.23,-2.15,-1.99,0,*5C
1494331603.9,43826,14.69,72646.5,-2.23,-2.15,-1.99,0,*5F
1494331605.14,43827,14.69,72644.5,-2.21,-2.23,-2.11,0,*5A
1494331606.39,43828,14.69,72648.0,-2.21,-2.27,-2.11,0,*51
1494331607.63,43829,14.63,72644.8,-2.21,-2.27,-2.11,0,*50
1494331608.88,43830,14.69,72646.3,-2.21,-2.23,-2.11,0,*5C
1494331610.13,43831,14.63,72644.8,-2.21,-2.23,-2.11,0,*5D
1494331611.34,43832,14.69,72650.0,-2.19,-2.27,-2.11,0,*51
1494331612.53,43833,14.69,72648.5,-2.19,-2.27,-2.19,0,*58
1494331613.75,43834,14.69,72646.8,-2.17,-2.31,-2.15,0,*5A
1494331614.97,43835,14.69,72650.5,-2.17,-2.31,-2.15,0,*5B
1494331616.2,43836,14.69,72648.5,-2.17,-2.31,-2.19,0,*54
1494331617.42,43837,14.69,72644.8,-2.17,-2.31,-2.15,0,*59
1494331618.64,43838,14.69,72648.5,-2.17,-2.31,-2.15,0,*56
1494331619.86,43839,14.69,72646.5,-2.17,-2.31,-2.23,0,*52
1494331621.08,43840,14.69,72644.5,-2.17,-2.35,-2.23,0,*58
1494331622.33,43841,14.69,72648.8,-2.17,-2.47,-2.23,0,*5C
1494331623.56,43842,14.69,72644.8,-2.15,-2.47,-2.31,0,*5E
1494331624.79,43843,14.63,72644.0,-2.15,-2.47,-2.35,0,*5B
1494331626.02,43844,14.69,72648.0,-2.15,-2.47,-2.35,0,*5C
1494331627.22,43845,14.69,72650.5,-2.15,-2.43,-2.31,0,*5D
1494331628.45,43846,14.69,72648.8,-2.15,-2.47,-2.31,0,*5A
1494331629.65,43847,14.69,72646.5,-2.15,-2.43,-2.31,0,*5F
1494331630.84,43848,14.69,72650.5,-2.15,-2.43,-2.27,0,*57
1494331632.06,43849,14.69,72648.0,-2.13,-2.43,-2.31,0,*57
1494331633.28,43850,14.69,72646.3,-2.13,-2.43,-2.31,0,*5F
1494331634.5,43851,14.69,72644.3,-2.13,-2.43,-2.27,0,*59
1494331635.72,43852,14.69,72648.0,-2.13,-2.39,-2.31,0,*50
1494331636.92,43853,14.69,72646.8,-2.15,-2.43,-2.31,0,*5A
1494331638.11,43854,14.69,72644.8,-2.15,-2.43,-2.27,0,*5A
1494331639.36,43855,14.69,72648.3,-2.13,-2.51,-2.31,0,*59
1494331640.6,43856,14.69,72650.3,-2.13,-2.51,-2.27,0,*5D
1494331641.85,43857,14.69,72646.8,-2.13,-2.51,-2.31,0,*5B
1494331643.1,43858,14.69,72644.8,-2.13,-2.55,-2.31,0,*50
1494331644.34,43859,14.69,72646.3,-2.13,-2.51,-2.39,0,*5D
1494331645.58,43860,14.69,72646.0,-2.13,-2.55,-2.43,0,*5E
1494331646.82,43861,14.69,72644.5,-2.13,-2.67,-2.43,0,*5E
1494331648.1,43862,14.69,72650.0,-2.13,-2.75,-2.51,0,*5D
1494331649.37,43863,14.69,72650.0,-2.11,-2.75,-2.59,0,*56
1494331650.62,43864,14.69,72646.3,-2.13,-2.79,-2.67,0,*52
1494331651.86,43865,14.69,72646.5,-2.13,-2.91,-2.67,0,*55
1494331653.08,43866,14.69,72644.5,-2.13,-2.87,-2.79,0,*5E
1494331654.29,43867,14.63,72642.8,-2.13,-2.91,-2.79,0,*58
1494331655.53,43868,14.63,72642.3,-2.13,-2.91,-2.75,0,*5B
1494331656.72,43869,14.69,72648.3,-2.15,-2.91,-2.79,0,*50
1494331657.97,43870,14.69,72646.8,-2.13,-2.91,-2.75,0,*52
1494331659.22,43871,14.69,72646.3,-2.13,-2.87,-2.63,0,*53
1494331660.46,43872,14.63,72642.3,-2.13,-2.87,-2.67,0,*54
1494331661.71,43873,14.69,72642.8,-2.13,-2.79,-2.63,0,*50
1494331662.98,43874,14.69,72642.8,-2.13,-2.75,-2.63,0,*5B
1494331664.23,43875,14.69,72640.5,-2.13,-2.79,-2.51,0,*57
1494331665.45,43876,14.69,72644.5,-2.15,-2.79,-2.59,0,*5A
1494331666.73,43877,14.69,72646.5,-2.13,-2.67,-2.55,0,*5E
1494331668.0,43878,14.69,72646.5,-2.13,-2.67,-2.51,0,*55
1494331669.28,43879,14.69,72644.5,-2.13,-2.63,-2.51,0,*50
1494331670.52,43880,14.69,72646.8,-2.13,-2.55,-2.39,0,*5D
1494331671.77,43881,14.69,72646.8,-2.13,-2.51,-2.39,0,*58
1494331673.01,43882,14.69,72646.0,-2.13,-2.55,-2.39,0,*5F
1494331674.26,43883,14.69,72644.8,-2.13,-2.55,-2.39,0,*5E
1494331675.5,43884,14.69,72644.8,-2.11,-2.51,-2.39,0,*5F
1494331676.75,43885,14.69,72644.0,-2.11,-2.59,-2.39,0,*56
1494331677.99,43886,14.69,72646.3,-2.11,-2.59,-2.35,0,*59
1494331679.21,43887,14.69,72642.8,-2.09,-2.59,-2.39,0,*5D
1494331680.45,43888,14.69,72646.8,-2.11,-2.51,-2.35,0,*5F
1494331681.7,43889,14.69,72644.3,-2.11,-2.59,-2.39,0,*5A
1494331682.92,43890,14.69,72644.0,-2.09,-2.51,-2.35,0,*5F
1494331684.17,43891,14.69,72646.5,-2.11,-2.47,-2.35,0,*50
1494331685.39,43892,14.69,72640.8,-2.09,-2.47,-2.35,0,*5A
1494331686.63,43893,14.69,72640.8,-2.11,-2.51,-2.27,0,*56
1494331687.82,43894,14.69,72646.0,-2.09,-2.39,-2.27,0,*56
1494331689.01,43895,14.69,72646.0,-2.09,-2.35,-2.27,0,*5B
1494331690.2,43896,14.69,72644.5,-2.09,-2.39,-2.23,0,*50
1494331691.43,43897,14.69,72650.3,-2.07,-2.31,-2.23,0,*57
1494331692.68,43898,14.69,72644.5,-2.07,-2.35,-2.11,0,*5D
1494331693.9,43899,14.69,72648.3,-2.07,-2.31,-2.19,0,*50
1494331695.13,43900,14.69,72646.0,-2.07,-2.31,-2.19,0,*51
1494331696.33,43901,14.69,72646.0,-2.05,-2.31,-2.19,0,*52
1494331697.55,43902,14.69,72646.5,-2.07,-2.31,-2.19,0,*53
1494331698.78,43903,14.69,72646.8,-2.07,-2.35,-2.19,0,*56
1494331699.98,43904,14.69,72646.8,-2.05,-2.31,-2.19,0,*57
1494331701.17,43905,14.69,72646.5,-2.05,-2.31,-2.19,0,*56
1494331702.37,43906,14.69,72646.8,-2.05,-2.23,-2.19,0,*56
1494331703.57,43907,14.69,72646.0,-2.05,-2.31,-2.19,0,*54
1494331704.79,43908,14.69,72650.0,-2.01,-2.27,-2.07,0,*57
1494331706.01,43909,14.69,72644.3,-2.05,-2.23,-2.11,0,*51
1494331707.23,43910,14.69,72646.0,-2.01,-2.19,-2.07,0,*53
1494331708.45,43911,14.69,72646.3,-2.01,-2.27,-2.07,0,*5F